DAL414 KMIA-MYNN

Flight info

Callsign DAL414
Flight time 0h 30m
Altitude 19000
Route KLADA2 RAJAY DCT
Aircraft A321/M-SDE3FGHIRWY/LB1

Departure

Time 2026-05-06 23:16
Airport Miami International Airport (KMIA)

Arrival

Time 2026-05-06 23:46
Airport Lynden Pindling International Airport (MYNN)
Time Latitude Longitude Altitude Speed Heading
2026-05-06 22:56 25.79058 -80.27874 30 ft 0 kts 309°
2026-05-06 23:06 25.79055 -80.27871 26 ft 3 kts 308°
2026-05-06 23:06 25.79040 -80.27846 15 ft 4 kts 295°
2026-05-06 23:07 25.79033 -80.27819 29 ft 4 kts 261°
2026-05-06 23:07 25.79041 -80.27801 28 ft 1 kts 202°
2026-05-06 23:07 25.79042 -80.27801 28 ft 0 kts 202°
2026-05-06 23:09 25.79026 -80.27808 27 ft 6 kts 202°
2026-05-06 23:10 25.78970 -80.27835 24 ft 11 kts 207°
2026-05-06 23:10 25.78936 -80.27907 25 ft 13 kts 272°
2026-05-06 23:10 25.78971 -80.27998 29 ft 13 kts 300°
2026-05-06 23:10 25.79027 -80.28103 29 ft 17 kts 299°
2026-05-06 23:11 25.79081 -80.28210 26 ft 15 kts 300°
2026-05-06 23:11 25.79131 -80.28306 28 ft 14 kts 299°
2026-05-06 23:11 25.79199 -80.28398 22 ft 17 kts 325°
2026-05-06 23:11 25.79277 -80.28521 21 ft 22 kts 300°
2026-05-06 23:12 25.79355 -80.28675 18 ft 24 kts 300°
2026-05-06 23:12 25.79434 -80.28829 19 ft 22 kts 299°
2026-05-06 23:12 25.79505 -80.28969 20 ft 20 kts 300°
2026-05-06 23:12 25.79570 -80.29094 22 ft 17 kts 298°
2026-05-06 23:13 25.79622 -80.29196 24 ft 14 kts 302°
2026-05-06 23:13 25.79673 -80.29296 22 ft 17 kts 299°
2026-05-06 23:13 25.79739 -80.29424 22 ft 20 kts 299°
2026-05-06 23:13 25.79812 -80.29567 19 ft 23 kts 300°
2026-05-06 23:14 25.79888 -80.29722 17 ft 23 kts 296°
2026-05-06 23:14 25.79951 -80.29877 16 ft 22 kts 292°
2026-05-06 23:14 25.79986 -80.30038 16 ft 20 kts 283°
2026-05-06 23:14 25.80048 -80.30123 19 ft 10 kts
2026-05-06 23:15 25.80073 -80.30062 17 ft 12 kts 82°
2026-05-06 23:15 25.80083 -80.29826 17 ft 67 kts 87°
2026-05-06 23:15 25.80117 -80.29010 26 ft 142 kts 87°
2026-05-06 23:15 25.80179 -80.27725 273 ft 182 kts 88°
2026-05-06 23:16 25.80232 -80.26255 977 ft 195 kts 94°
2026-05-06 23:16 25.79926 -80.24801 1922 ft 196 kts 116°
2026-05-06 23:16 25.79285 -80.23520 2885 ft 186 kts 118°
2026-05-06 23:16 25.78662 -80.22214 3169 ft 200 kts 117°
2026-05-06 23:17 25.78022 -80.20796 3482 ft 210 kts 116°
2026-05-06 23:17 25.77367 -80.19317 3854 ft 217 kts 116°
2026-05-06 23:17 25.76679 -80.17781 4033 ft 237 kts 117°
2026-05-06 23:17 25.75869 -80.16084 4233 ft 261 kts 118°
2026-05-06 23:18 25.74971 -80.14261 4652 ft 275 kts 118°
2026-05-06 23:18 25.74036 -80.12388 5307 ft 280 kts 118°
2026-05-06 23:18 25.73169 -80.10450 5993 ft 282 kts 110°
2026-05-06 23:18 25.72483 -80.08404 6671 ft 284 kts 109°
2026-05-06 23:19 25.71798 -80.06343 7328 ft 286 kts 108°
2026-05-06 23:19 25.71111 -80.04266 7976 ft 288 kts 108°
2026-05-06 23:19 25.70420 -80.02177 8622 ft 290 kts 108°
2026-05-06 23:19 25.69724 -80.00070 9264 ft 292 kts 108°
2026-05-06 23:20 25.69035 -79.97974 9888 ft 295 kts 107°
2026-05-06 23:20 25.68324 -79.95813 10254 ft 306 kts 107°
2026-05-06 23:20 25.67571 -79.93523 10369 ft 326 kts 107°
2026-05-06 23:20 25.66772 -79.91097 10493 ft 344 kts 108°
2026-05-06 23:21 25.65936 -79.88571 10835 ft 353 kts 108°
2026-05-06 23:21 25.65084 -79.86007 11338 ft 356 kts 107°
2026-05-06 23:21 25.64222 -79.83423 11881 ft 359 kts 107°
2026-05-06 23:21 25.63349 -79.80821 12413 ft 362 kts 107°
2026-05-06 23:22 25.62469 -79.78197 12941 ft 365 kts 107°
2026-05-06 23:22 25.61582 -79.75551 13481 ft 368 kts 107°
2026-05-06 23:22 25.60703 -79.72921 13985 ft 370 kts 107°
2026-05-06 23:22 25.59809 -79.70233 14429 ft 374 kts 106°
2026-05-06 23:23 25.58978 -79.67495 14858 ft 377 kts 104°
2026-05-06 23:23 25.58233 -79.64701 15275 ft 380 kts 102°
2026-05-06 23:23 25.57528 -79.61868 15711 ft 383 kts 102°
2026-05-06 23:23 25.56831 -79.59006 16124 ft 387 kts 102°
2026-05-06 23:24 25.56123 -79.56116 16529 ft 391 kts 102°
2026-05-06 23:24 25.55396 -79.53201 16930 ft 395 kts 103°
2026-05-06 23:24 25.54642 -79.50256 17220 ft 402 kts 103°
2026-05-06 23:24 25.53857 -79.47240 17337 ft 413 kts 103°
2026-05-06 23:25 25.53048 -79.44152 17476 ft 422 kts 103°
2026-05-06 23:25 25.52232 -79.41040 17600 ft 431 kts 103°
2026-05-06 23:25 25.51389 -79.37823 17735 ft 439 kts 103°
2026-05-06 23:25 25.50530 -79.34548 17858 ft 447 kts 103°
2026-05-06 23:26 25.49661 -79.31222 17992 ft 454 kts 103°
2026-05-06 23:26 25.48780 -79.27840 18120 ft 461 kts 103°
2026-05-06 23:26 25.47887 -79.24411 18249 ft 467 kts 103°
2026-05-06 23:26 25.46981 -79.20938 18388 ft 472 kts 104°
2026-05-06 23:27 25.46064 -79.17438 18589 ft 475 kts 104°
2026-05-06 23:27 25.45137 -79.13923 18816 ft 477 kts 104°
2026-05-06 23:27 25.44205 -79.10394 19000 ft 478 kts 104°
2026-05-06 23:27 25.43277 -79.06887 19063 ft 466 kts 104°
2026-05-06 23:28 25.42380 -79.03513 19077 ft 451 kts 103°
2026-05-06 23:28 25.41513 -79.00239 19076 ft 448 kts 103°
2026-05-06 23:28 25.40643 -78.96934 19079 ft 447 kts 103°
2026-05-06 23:28 25.39776 -78.93630 19079 ft 447 kts 103°
2026-05-06 23:29 25.38911 -78.90327 19076 ft 447 kts 103°
2026-05-06 23:29 25.38046 -78.87026 19076 ft 447 kts 103°
2026-05-06 23:29 25.37175 -78.83722 19076 ft 447 kts 103°
2026-05-06 23:29 25.36300 -78.80424 19076 ft 447 kts 103°
2026-05-06 23:30 25.35423 -78.77130 19077 ft 447 kts 103°
2026-05-06 23:30 25.34544 -78.73833 19076 ft 447 kts 103°
2026-05-06 23:30 25.33668 -78.70537 19075 ft 447 kts 103°
2026-05-06 23:30 25.32792 -78.67241 19080 ft 447 kts 103°
2026-05-06 23:31 25.31917 -78.63946 19073 ft 445 kts 103°
2026-05-06 23:31 25.31060 -78.60738 19071 ft 426 kts 103°
2026-05-06 23:31 25.30241 -78.57686 18889 ft 413 kts 103°
2026-05-06 23:31 25.29435 -78.54687 18384 ft 403 kts 103°
2026-05-06 23:32 25.28649 -78.51747 17756 ft 395 kts 103°
2026-05-06 23:32 25.27883 -78.48883 17283 ft 383 kts 103°
2026-05-06 23:32 25.27328 -78.46075 16852 ft 366 kts 92°
2026-05-06 23:32 25.27288 -78.43330 16438 ft 350 kts 81°
2026-05-06 23:33 25.27581 -78.40713 16037 ft 338 kts 79°
2026-05-06 23:33 25.27874 -78.38173 15651 ft 329 kts 79°
2026-05-06 23:33 25.28151 -78.35699 15278 ft 322 kts 79°
2026-05-06 23:33 25.28423 -78.33249 14901 ft 321 kts 79°
2026-05-06 23:34 25.28695 -78.30807 14530 ft 319 kts 79°
2026-05-06 23:34 25.28968 -78.28379 14159 ft 318 kts 79°
2026-05-06 23:34 25.29243 -78.25957 13762 ft 317 kts 79°
2026-05-06 23:34 25.29512 -78.23578 13360 ft 315 kts 79°
2026-05-06 23:35 25.29783 -78.21182 12985 ft 313 kts 79°
2026-05-06 23:35 25.30052 -78.18800 12601 ft 311 kts 79°
2026-05-06 23:35 25.30325 -78.16416 12230 ft 318 kts 79°
2026-05-06 23:35 25.30617 -78.13969 11868 ft 323 kts 79°
2026-05-06 23:36 25.30918 -78.11507 11508 ft 323 kts 79°
2026-05-06 23:36 25.31224 -78.09048 11153 ft 323 kts 79°
2026-05-06 23:36 25.31534 -78.06596 10803 ft 322 kts 79°
2026-05-06 23:36 25.31849 -78.04154 10458 ft 321 kts 79°
2026-05-06 23:37 25.32163 -78.01727 10109 ft 317 kts 80°
2026-05-06 23:37 25.32133 -77.99303 9803 ft 315 kts 100°
2026-05-06 23:37 25.31442 -77.97044 9674 ft 306 kts 109°
2026-05-06 23:37 25.30675 -77.94913 9458 ft 302 kts 110°
2026-05-06 23:38 25.29895 -77.92757 9015 ft 302 kts 110°
2026-05-06 23:38 25.29117 -77.90614 8569 ft 302 kts 111°
2026-05-06 23:38 25.28339 -77.88473 8269 ft 298 kts 111°
2026-05-06 23:38 25.27570 -77.86364 8007 ft 293 kts 111°
2026-05-06 23:39 25.26812 -77.84287 7883 ft 290 kts 111°
2026-05-06 23:39 25.26054 -77.82210 7237 ft 293 kts 112°
2026-05-06 23:39 25.25295 -77.80124 6687 ft 292 kts 112°
2026-05-06 23:39 25.24541 -77.78057 6077 ft 289 kts 112°
2026-05-06 23:40 25.23784 -77.75991 5321 ft 291 kts 112°
2026-05-06 23:40 25.23038 -77.73960 4744 ft 286 kts 112°
2026-05-06 23:40 25.22303 -77.71956 4289 ft 277 kts 112°
2026-05-06 23:40 25.21606 -77.70053 4201 ft 257 kts 111°
2026-05-06 23:41 25.20963 -77.68297 4144 ft 238 kts 111°
2026-05-06 23:41 25.20357 -77.66646 4037 ft 227 kts 111°
2026-05-06 23:41 25.19770 -77.65044 3938 ft 224 kts 111°
2026-05-06 23:41 25.19174 -77.63465 3842 ft 222 kts 117°
2026-05-06 23:42 25.18253 -77.62098 3666 ft 224 kts 133°
2026-05-06 23:42 25.17152 -77.60875 3287 ft 225 kts 134°
2026-05-06 23:42 25.16058 -77.59667 2981 ft 218 kts 134°
2026-05-06 23:42 25.15034 -77.58528 2697 ft 207 kts 134°
2026-05-06 23:43 25.14046 -77.57428 2432 ft 197 kts 134°
2026-05-06 23:43 25.13105 -77.56381 2175 ft 186 kts 134°
2026-05-06 23:43 25.12228 -77.55404 1964 ft 179 kts 133°
2026-05-06 23:43 25.11351 -77.54427 1720 ft 179 kts 133°
2026-05-06 23:44 25.10482 -77.53461 1490 ft 176 kts 134°
2026-05-06 23:44 25.09622 -77.52503 1266 ft 176 kts 133°
2026-05-06 23:44 25.08765 -77.51550 1037 ft 173 kts 133°
2026-05-06 23:44 25.07938 -77.50632 834 ft 167 kts 132°
2026-05-06 23:45 25.07126 -77.49732 620 ft 164 kts 132°
2026-05-06 23:45 25.06320 -77.48840 415 ft 165 kts 132°
2026-05-06 23:45 25.05525 -77.47939 202 ft 161 kts 133°
2026-05-06 23:45 25.04762 -77.47093 24 ft 150 kts 133°
2026-05-06 23:46 25.04112 -77.46374 12 ft 96 kts 136°
2026-05-06 23:46 25.03912 -77.46156 12 ft 31 kts 134°
2026-05-06 23:46 25.03752 -77.45967 13 ft 28 kts 114°
2026-05-06 23:46 25.03827 -77.45881 12 ft 15 kts 41°
2026-05-06 23:47 25.03911 -77.45895 12 ft 13 kts 317°
2026-05-06 23:47 25.03974 -77.45963 14 ft 13 kts 316°
2026-05-06 23:47 25.04067 -77.46063 12 ft 23 kts 315°
2026-05-06 23:47 25.04179 -77.46188 12 ft 23 kts 315°
2026-05-06 23:48 25.04288 -77.46310 11 ft 22 kts 314°
2026-05-06 23:48 25.04393 -77.46430 12 ft 21 kts 315°
2026-05-06 23:48 25.04504 -77.46552 13 ft 23 kts 315°
2026-05-06 23:48 25.04601 -77.46661 14 ft 19 kts 314°
2026-05-06 23:49 25.04681 -77.46728 12 ft 13 kts 348°
2026-05-06 23:49 25.04765 -77.46703 12 ft 12 kts 359°
2026-05-06 23:49 25.04805 -77.46731 12 ft 2 kts 317°
2026-05-06 23:49 25.04808 -77.46734 12 ft 0 kts 315°